Bonaire, Netherlands

9:47 PM AST on April 24, 2018 (GMT -0400)
Flamingo

Weather History for TNCB - September, 2012

Change the Weather History Date:

Saturday, September 15, 2012

  Actual Average Record
Temperature  
Mean Temperature 87 °F -  
Max Temperature 92 °F 88 °F 95 °F (2003)
Min Temperature 82 °F 82 °F 80 °F (2002)
Cooling Degree Days 22    
Growing Degree Days 37 (Base 50)    
Moisture  
Dew Point 78 °F    
Average Humidity 77    
Maximum Humidity 87    
Minimum Humidity 66    
Precipitation  
Precipitation 0.00 in - - ()
Sea Level Pressure  
Sea Level Pressure 29.92 in    
Wind  
Wind Speed 12 mph ()    
Max Wind Speed 17 mph    
Max Gust Speed -    
Visibility 8.2 miles    
Events      
Averages and records for this station are not official NWS values.
T = Trace of Precipitation, MM = Missing Value Source: Averaged Metar Reports

Daily Weather History Graph

Daily Weather History Graph

Search for Another Location

Airport or City:

Astronomy

Sep. 15, 2012 Rise Set
Actual Time 6:22 AM AST 6:33 PM AST
Civil Twilight 6:01 AM AST 6:54 PM AST
Nautical Twilight 5:36 AM AST 7:19 PM AST
Astronomical Twilight 5:11 AM AST 7:44 PM AST
Moon 5:46 AM AST (9/15) 6:11 PM AST (9/15)
Length of Visible Light 12h 53m
Length of Day
12h 11m
Waning Crescent, 0% of the Moon is Illuminated
Sep 15
Waning Crescent
Sep 15
New
Sep 22
First Quarter
Sep 29
Full
Oct 8
Last Quarter

Hourly Weather History & Observations

Time (AST) Temp. Heat Index Dew Point Humidity Pressure Visibility Wind Dir Wind Speed Gust Speed Precip Events Conditions
12:00 AM 84.2 °F 94.1 °F 77.0 °F 79% 29.92 in 6.2 mi East 12.7 mph - N/A   Partly Cloudy
1:00 AM 82.4 °F 90.9 °F 77.0 °F 84% 29.89 in 6.2 mi East 11.5 mph - N/A   Partly Cloudy
2:00 AM 83 °F - 77 °F 77%  in - ESE 12.7 mph - -   Clear
2:00 AM 82.4 °F 90.9 °F 77.0 °F 84% 29.89 in - ESE 12.7 mph - N/A   Unknown
3:00 AM 82.4 °F 90.9 °F 77.0 °F 84% 29.89 in - ESE 10.4 mph - N/A   Unknown
4:00 AM 82.4 °F 90.9 °F 77.0 °F 84% 29.86 in - ESE 12.7 mph - N/A   Unknown
5:00 AM 82 °F - 76 °F 78%  in - ESE 12.7 mph - -   Clear
5:00 AM 82.4 °F 90.9 °F 77.0 °F 84% 29.89 in - ESE 12.7 mph - N/A   Unknown
6:00 AM 82.4 °F 90.9 °F 77.0 °F 84% 29.89 in - ESE 12.7 mph - N/A   Unknown
7:00 AM 84.2 °F 94.1 °F 77.0 °F 79% 29.92 in - ESE 10.4 mph - N/A   Unknown
8:00 AM 86 °F - 78 °F 70% 29.96 in 19 mi ESE 11.5 mph - -   Partly Cloudy
8:00 AM 86.0 °F 96.9 °F 77.0 °F 74% 29.95 in 6.2 mi ESE 11.5 mph - N/A   Scattered Clouds
9:00 AM 87.8 °F 102.5 °F 78.8 °F 75% 29.95 in 6.2 mi ESE 15.0 mph - N/A   Scattered Clouds
10:00 AM 87.8 °F 102.5 °F 78.8 °F 75% 29.98 in 6.2 mi ESE 17.3 mph - N/A   Scattered Clouds
11:00 AM 88 °F - 79 °F 67% 29.99 in 19 mi ESE 17.3 mph - -   Mostly Cloudy
11:00 AM 87.8 °F 102.5 °F 78.8 °F 75% 29.98 in 6.2 mi ESE 17.3 mph - N/A   Mostly Cloudy
12:00 PM 89.6 °F 104.7 °F 78.8 °F 70% 29.95 in 6.2 mi ESE 17.3 mph - N/A   Mostly Cloudy
1:00 PM 87.8 °F 102.5 °F 78.8 °F 75% 29.92 in 6.2 mi ESE 17.3 mph - N/A   Scattered Clouds
2:00 PM 92 °F - 89 °F 87% 29.91 in 22 mi East 16.1 mph - -   Partly Cloudy
2:00 PM 89.6 °F 102.2 °F 77.0 °F 66% 29.89 in 6.2 mi ESE 17.3 mph - N/A   Scattered Clouds
3:00 PM 89.6 °F 102.2 °F 77.0 °F 66% 29.86 in 6.2 mi ESE 17.3 mph - N/A   Partly Cloudy
6:00 PM 86.0 °F 99.3 °F 78.8 °F 79% 29.86 in - ESE 17.3 mph - N/A   Unknown
7:00 PM 84.2 °F 94.1 °F 77.0 °F 79% 29.86 in 6.2 mi East 15.0 mph - N/A   Scattered Clouds
9:00 PM 84.2 °F 94.1 °F 77.0 °F 79% 29.92 in - ESE 17.3 mph - N/A   Unknown
11:00 PM 83 °F - 74 °F 69%  in - ESE 17.3 mph - -   Clear
11:00 PM 84.2 °F 92.3 °F 75.2 °F 74% 29.95 in - North - - N/A   Unknown